Powrót do katalogu

COSMOS 1771 FUEL CORE

AktywnyLEO
NORAD 17035·DEBRIS·🇷🇺 Russia

Wystrzelony Aug 20, 1986 z Baikonur Cosmodrome

Loading…

Następne Przeloty (najbliższe 24 godziny)

TLE

ŚwieżeSource: Space-Track

Epoka: Sep 14, 2026, 23:03 UTC

1 17035U 86062C   26257.96105858 -.00000098  00000-0 -75733-5 0  9991
2 17035  64.9914 242.3740 0052067 241.7208 149.4312 13.86453070 21012

Śledź COSMOS 1771 FUEL CORE w czasie rzeczywistym z AllMySat

Download on the App Store